Regional Weather Roundup
Issued by NWS

Home | Current Version | Previous Version | Text Only | Print | Product List | Glossary On
Versions: 1 2 3 4 5 6 7 8 9 10 11 12 13 14 15 16 17 18 19 20 21 22 23 24 25 26 27 28 29 30 31 32 33 34 35 36 37 38 39 40 41 42 43 44 45 46 47 48 49 50
000
ASUS45 KTFX 030510
RWRMT
MONTANA REGIONAL WEATHER ROUNDUP
NATIONAL WEATHER SERVICE GREAT FALLS MT
1000 PM MST FRI DEC 02 2016

NOTE: "FAIR" INDICATES FEW OR NO CLOUDS BELOW 12000 FEET WITH NO
SIGNIFICANT WEATHER AND/OR OBSTRUCTIONS TO VISIBILITY.

MTZ001>007-043-030600-
WEST OF THE DIVIDE

CITY           SKY/WX    TMP DP  RH WIND       PRES   REMARKS
KALISPELL      FRZ RAIN  32  29  88 SE12      30.05S FOG     WCI  23
MISSOULA       CLOUDY    30  27  88 S5        30.11F
BUTTE          CLOUDY    24  20  84 CALM      30.05F
MULLAN PASS    LGT SNOW  22  20  92 SW6       29.96S FOG     WCI  14
ANACONDA         N/A     25  19  80 E5        30.05F
DEER LODGE       N/A     27  23  86 CALM      30.09S
EUREKA           N/A     34  27  75 SE14      30.02R WCI  24
HAMILTON         N/A     36  18  48 SE9       30.10F WCI  29
LIBBY            N/A     32  30  93 CALM      30.02S
RONAN            N/A     32  27  82 CALM      30.08F
$$

MTZ008-052>055-030600-
SOUTHWEST MONTANA

CITY           SKY/WX    TMP DP  RH WIND       PRES   REMARKS
BOZEMAN        CLOUDY    24  18  77 E3        30.08F
DILLON         CLOUDY    27  12  53 SW14      30.08S WCI  16
W YELLOWSTONE  LGT SNOW  16  14  93 SW8       30.15R WCI   5
ENNIS          CLOUDY    23  14  68 S18       30.15F WCI   9
THREE FORKS      N/A     32  32 100 SW8       30.06S WCI  25
TWIN BRIDGES     N/A     30  16  56 E15       30.07S WCI  19
$$

MTZ009-010-012-014-046-048-049-054-030600-
EAST SLOPES AND CENTRAL MONTANA

CITY           SKY/WX    TMP DP  RH WIND       PRES   REMARKS
CUT BANK       PTCLDY    33  20  58 W37G45    29.75F WCI  18
GREAT FALLS    CLOUDY    30  22  72 SW21      29.88F WCI  17
MALMSTROM AFB  CLOUDY    30  26  83 SW18G28   29.90F WCI  18
HELENA         CLOUDY    32  21  64 S5        30.03F
AUGUSTA        MOCLDY    32  17  52 W30G40    29.85F WCI  18
BOWMANS CRNR     N/A     28  18  64 SW20G26   29.88F WCI  15
CHOTEAU          N/A     34  18  51 SW14G22   29.84F WCI  24
FAIRFIELD        N/A     34  17  50 SW24G31   29.85F WCI  22
POWER          MOCLDY    30  21  69 SW18G25   29.85F WCI  18
RAYNESFORD     FLURRIES  31  24  72 SW24      29.89F WCI  18
ULM            CLOUDY    32  24  74 SW12      29.91F WCI  23
$$

MTZ011-013-016-021-045-047-050-051-030600-
NORTH CENTRAL MONTANA

CITY           SKY/WX    TMP DP  RH WIND       PRES   REMARKS
HAVRE          LGT SNOW  31  28  89 SW20      29.86F FOG     WCI  19
N BAR RANCH      N/A     19  10  68 NW7       29.92F WCI  10
CHINOOK          N/A     36  21  55 SW18G29   29.87S WCI  25
DENTON         CLOUDY    26  19  74 S13       29.86F WCI  15
GEYSER         FLURRIES  31  24  75 W25G36    29.87F WCI  18
GRASS RANGE    MOCLDY    25  16  69 SW9       29.88F WCI  16
JUDITH GAP     MOCLDY    28  16  60 W18G24    29.90F WCI  15
ROY            MOCLDY    29  15  57 MISG      29.89F
STANFORD       CLOUDY    31  21  64 SW7       29.88F WCI  25
WINIFRED       MOCLDY    30  18  59 MISG      29.87F
$$

MTZ017>020-022>027-061-062-030600-
NORTHEAST MONTANA

CITY           SKY/WX    TMP DP  RH WIND       PRES   REMARKS
GLASGOW        CLEAR     23  20  88 SE9       29.92F WCI  13
JORDAN           N/A     26  17  68 VRB5      29.94F
SIDNEY         CLEAR     17  16  95 S5        30.04F
WOLF POINT     CLEAR     29  24  82 CALM      29.97F
PLENTYWOOD       N/A     21  21 100 E6        29.97F WCI  14
POPLAR           N/A     28  23  80 CALM      29.99F
$$

MTZ028>42-056>058-030600-
SOUTHCENTRAL AND SOUTHEAST MONTANA

CITY           SKY/WX    TMP DP  RH WIND       PRES   REMARKS
BAKER          CLEAR     25  20  81 S17       30.05F WCI  12
BILLINGS       CLEAR     32  18  56 W16       29.99F WCI  21
LIVINGSTON     CLOUDY    31  12  45 W28G37    30.00F WCI  17
MILES CITY     CLEAR     25  21  85 SE10      30.01F WCI  15
BIG TIMBER     PTCLDY    32  10  40 W29G40    29.98F WCI  18
FORSYTH          N/A     34  21  60 S8        29.99F WCI  27
HARLOWTON      MOCLDY    30  14  51 W25G33    29.93F WCI  16
LAUREL           N/A     31  11  43 SW12      29.97F WCI  22
ROUNDUP          N/A     25  10  52 S7        29.88F WCI  17
$$

REGIONAL REPORTS...DAKOTAS

CITY           SKY/WX    TMP DP  RH WIND       PRES   REMARKS
WILLISTON      CLEAR     24  21  88 S5        30.03F
MINOT          CLOUDY    29  25  85 SE7       30.09F WCI  22
DICKINSON      CLEAR     18  16  92 S12       30.06F WCI   5
CROSBY           N/A     27  27 100 S13       30.02F WCI  16
TIOGA            N/A     23  23 100 S3        30.05S
WATFORD CITY     N/A     18  18 100 E3        30.05F
BISMARCK       CLOUDY    25  23  92 S7        30.18F WCI  17
GRAND FORKS    CLOUDY    31  22  69 S7        30.25S WCI  24
FARGO          CLOUDY    28  19  69 SW5       30.29S
BUFFALO SD       N/A     25  22  88 S8        30.02F WCI  16
RAPID CITY     CLEAR     23  18  81 S5        30.14F
$$

REGIONAL REPORTS...WYOMING/IDAHO/WASHINGTON

CITY           SKY/WX    TMP DP  RH WIND       PRES   REMARKS
GILLETTE       CLEAR     24  18  77 S22       30.02F WCI   9
SHERIDAN       CLEAR     21  11  65 CALM      29.98F
BUFFALO WY     CLEAR     24   9  52 NW5       29.97F
CODY           CLEAR     29   8  41 W18G26    30.00F WCI  16
YELLOWSTONE LA   N/A     11   7  84 CALM      30.11S
IDAHO FALLS    CLOUDY    25  19  78 S7        30.25R WCI  17
SALMON         CLOUDY    30  19  64 CALM      30.14F
BOISE          CLOUDY    32  25  75 SE9       30.28F WCI  24
SPOKANE        FLURRIES  34  32  92 SE10      30.05R WCI  26
$$

REGIONAL REPORTS...ALBERTA

CITY           SKY/WX    TMP DP  RH WIND       PRES   REMARKS
EDMONTON       CLOUDY    25  23  93 SE3       29.66S
CALGARY        MOCLDY    41  18  38 W18G29    29.65S
LETHBRIDGE     MOCLDY    37  21  52 W32G40    29.73S WCI  25
MEDICINE HAT   CLOUDY    37  25  60 SW14G22   29.71F WCI  29
WATERTON GATE    N/A     34  21  60 SW32G47     N/A  WCI  20
CARDSTON         N/A     37  18  44 W21G36      N/A  WCI  27
MILK RIVER       N/A     30  21  69 SW10        N/A  WCI  21
ONEFOUR          N/A     34  27  75 SW10        N/A  WCI  26
$$

REGIONAL REPORTS...SASKATCHEWAN

CITY           SKY/WX    TMP DP  RH WIND       PRES   REMARKS
SWIFT CURRENT  MOCLDY    25  21  86 S15G21    29.75F WCI  12
REGINA         MOCLDY    23  23 100 SE12      29.93F WCI  12
SASKATOON      MOCLDY    27  19  74 SE16      29.86F WCI  14
CYPRESS HILLS    N/A     23  21  93 SW6         N/A  WCI  16
VAL MARIE        N/A     19  18  93 S8          N/A  WCI   9
ROCKGLEN         N/A     21  19  93 S7          N/A  WCI  13
ASSINIBOIA       N/A     28  25  86 SE9         N/A  WCI  20
$$



USA.gov is the U.S. government's official web portal to all federal, state and local government web resources and services.